FW5107 Weather Reports


time (UTC)temp
F
wind
direction
speed
knots
gust
knots
rain 1hr
in
rain 24hr
in
rain mn
in
humidity
%
barometer
mb
20260505041508 49 255 7.8 15.6 0.00 0.54 0.00 74 1007.1
20260505040005 49 235 7.8 13.9 0.00 0.56 0.00 73 1006.8
20260505034502 49 224 7.8 14.8 0.00 0.56 0.00 73 1006.6
20260505033100 49 231 7.8 15.6 0.00 0.56 0.00 72 1006.4
20260505031558 49 228 7.8 13.0 0.00 0.56 0.00 72 1006.3
20260505024608 50 222 7.8 13.0 0.00 0.59 0.56 71 1005.9
20260505023051 50 230 8.7 15.6 0.00 0.59 0.56 70 1005.8
20260505021550 50 228 7.8 15.6 0.00 0.59 0.56 69 1005.6
20260505020103 51 253 7.8 14.8 0.00 0.59 0.56 68 1005.2
20260505014548 51 219 6.1 15.6 0.00 0.60 0.56 68 1005.1
20260505013146 51 233 7.0 15.6 0.00 0.60 0.56 69 1004.9
20260505011547 51 217 5.2 10.4 0.00 0.60 0.56 68 1005.0
20260505010104 51 239 4.3 16.5 0.00 0.64 0.56 67 1005.0
20260505004559 52 210 7.0 14.8 0.00 0.64 0.56 66 1004.8
20260505003045 52 259 9.6 18.2 0.00 0.64 0.56 65 1004.9
20260505001543 51 211 7.8 13.0 0.00 0.64 0.56 63 1004.8
20260505000040 51 209 9.6 14.8 0.00 0.69 0.56 61 1004.5
20260504234538 50 231 7.0 13.9 0.00 0.69 0.56 64 1004.5
20260504233037 51 236 8.7 14.8 0.00 0.69 0.56 63 1004.1
20260504231540 51 261 10.4 24.3 0.00 0.69 0.56 62 1004.0
20260504230037 52 254 14.8 26.9 0.00 0.87 0.56 59 1003.6
20260504224535 53 222 12.2 20.9 0.00 0.87 0.56 44 1003.5
20260504223031 53 242 9.6 21.7 0.00 0.87 0.56 48 1003.2
20260504221537 53 229 12.2 20.9 0.00 0.87 0.56 48 1002.9
20260504220028 53 226 7.8 15.6 0.00 1.03 0.56 49 1002.9
20260504214528 54 236 7.8 19.1 0.00 1.03 0.56 48 1002.7
20260504213036 55 210 8.7 17.4 0.00 1.03 0.56 47 1002.6
20260504211529 55 263 8.7 21.7 0.00 1.03 0.56 51 1002.5
20260504210020 55 218 9.6 20.0 0.00 1.11 0.56 51 1002.2
20260504204517 54 254 14.8 20.9 0.00 1.11 0.56 51 1002.0
20260504203016 54 252 10.4 20.9 0.00 1.11 0.56 53 1002.0
20260504201514 54 239 12.2 19.1 0.00 1.11 0.56 55 1001.9
20260504200011 54 242 12.2 25.2 0.00 1.15 0.56 56 1001.5
20260504194515 53 251 13.9 23.5 0.00 1.15 0.56 58 1001.4
20260504193009 53 300 13.9 23.5 0.00 1.15 0.56 58 1001.1
20260504191505 54 251 13.0 20.0 0.00 1.15 0.56 57 1000.7
20260504190003 53 285 16.5 22.6 0.00 1.15 0.56 56 1000.5
20260504184506 53 334 13.0 24.3 0.00 1.15 0.56 59 1000.5
20260504183100 53 268 13.9 30.4 0.00 1.15 0.56 60 1000.5
20260504181604 53 282 10.4 20.9 0.00 1.15 0.56 63 1000.2
20260504180056 52 258 13.0 28.7 0.00 1.15 0.56 63 1000.1
20260504174556 52 234 15.6 29.5 0.00 1.17 0.56 64 999.9
20260504173052 51 270 15.6 26.1 0.00 1.17 0.56 69 999.8
20260504171550 50 276 18.2 30.4 0.00 1.17 0.56 72 999.8
20260504081509 37 244 20.9 35.6 0.08 0.87 0.26 93 982.0
20260504044533 39 305 5.2 12.2 0.02 0.65 0.05 95 975.6
20260504043025 39 284 6.1 9.6 0.02 0.65 0.04 95 975.6